METEOR 1-19

Satellite information

Favourite Embed

Satellite Type and Status

PAYLOADIN ORBIT

Key statistics

Satellite METEOR 1-19 at a glance.

Uptime

18616

Days in orbit

Revolutions

≈ 14.1

Per day

Orbit

LEO

Low Earth Orbit

Inclination

81.2

Latest

Satellite identification and parameters

Extended collection of information and parameters for METEOR 1-19.

Object identification

Identified? True

Debris? False

Object name: METEOR 1-19

International designator: 1974-083A

Object number (NORAD): 7490

Object ID (CCSDS): 7490

Country: COMMONWEALTH OF INDEPENDENT STATES (CIS)

Current information (Y/N): Y

RCS size: LARGE

Orbital parameters

Period: 102.09 minutes

Inclination: 81.1924 deg

SMA: 7235.746 km

Apoapsis: 880.167 km

Periapsis: 835.054 km

RAAN: 17.5463 deg

Eccentricy: 0.00311741

Argument of periapsis: 54.3459 deg

Mean anomaly: 306.0608 deg

Mean motion: 14.10515368 rev/day

Mean motion (dot): 0.00000078 rev/day2

B* drag term: 0.000036325811 1/REarth

Two-line elements (TLE)

Creation date: Oct. 16, 2025, 2:37 a.m.

Reference frame: TEME

Reference center: EARTH

Epoch: Oct. 15, 2025, 4:30 p.m. UTC

TLE line 0: 0 METEOR 1-19

TLE line 1: 1 07490U 74083A 25288.68765534 .00000078 00000-0 36326-4 0 9990

TLE line 2: 2 07490 81.1924 17.5463 0031174 54.3459 306.0608 14.10515368620419

Live tracking on map

Real-time ground track for satellite METEOR 1-19.

In-orbit conjunctions

A list of the most updated potential collisions computed for object METEOR 1-19.

Target Orbit TCA Probability of collision Miss distance Type
FENGYUN 1C DEB SSO 2025-09-15 10:20:52 0.0001123542 764.0 (m) DEBRIS
FENGYUN 1C DEB SSO 2025-03-27 23:57:40 0.0002058615 982.0 (m) DEBRIS
CZ-4 DEB SSO 2025-02-22 05:19:41 0.0007690474 908.0 (m) DEBRIS
FENGYUN 1C DEB SSO 2025-02-16 12:27:56 0.000249832 186.0 (m) DEBRIS
COSMOS 970 DEB LEO 2025-02-10 17:00:47 0.0001244622 459.0 (m) DEBRIS

Associated space launch

The Meteor-1 series was the first series of Soviet meteorological satellites.

METEOR 1-19 was lifted into orbit during the mission ‘Vostok 8A92M | Meteor-1 19 (33L)’, on board a Vostok 8A92M space rocket.

The launch took place on Oct. 28, 1974, 10:17 a.m. from 43/4 (43R).

For more information about the launch, click the button.

Launch to space Vostok 8A92M | Meteor-1 19 (33L)
Vostok 8A92M | Meteor-1 19 (33L)

Agency: N/A

Status: Launch Successful

Launch date: Oct. 28, 1974, 10:17 a.m. UTC

Rocket: Vostok 8A92M

Launch pad: 43/4 (43R)

Location: Plesetsk Cosmodrome, Russian Federation

...

Latest news about this satellite

There are no fresh news available about this satellite. Check back as we update our databases every day.


Newsletter sign-up

Weekly statistics, charts and insights to help you stay on top of the space industry.